DW7787 Weather Reports


Display with metric or nautical units.
time (UTC)temp
F
wind
direction
speed
MPH
gust
MPH
rain 1hr
in
rain 24hr
in
rain mn
in
humidity
%
barometer
mb
20260906021057 76 355 0.0 1.0 0.00 0.01 0.01 80 1013.3
20260906020258 76 355 0.0 1.0 0.00 0.01 0.01 80 1013.2
20260906015755 76 355 0.0 2.0 0.00 0.01 0.01 80 1013.1
20260906015255 76 355 0.0 2.0 0.00 0.01 0.01 81 1013.1
20260906014754 77 355 0.0 1.0 0.00 0.01 0.01 81 1013.1
20260906014546 77 355 0.0 1.0 0.00 0.01 0.01 81 1013.3
20260906014043 77 355 0.0 0.0 0.00 0.01 0.01 81 1013.1
20260906013251 77 355 0.0 1.0 0.00 0.01 0.01 81 1013.1
20260906013038 77 355 0.0 1.0 0.00 0.01 0.01 80 1013.0
20260906012249 78 355 0.0 1.0 0.00 0.01 0.01 80 1012.8
20260906011750 78 355 0.0 1.0 0.00 0.01 0.01 79 1012.8
20260906011251 78 355 0.0 0.0 0.00 0.01 0.01 78 1012.7
20260906010751 78 355 0.0 0.0 0.00 0.01 0.01 78 1012.7
20260906010251 78 355 0.0 0.0 0.00 0.01 0.01 78 1012.7
20260906005748 79 355 0.0 0.0 0.00 0.01 0.01 77 1012.6
20260906005249 79 355 0.0 1.0 0.00 0.01 0.01 76 1012.7
20260906004747 79 355 0.0 1.0 0.00 0.01 0.01 76 1012.7
20260906004546 79 355 0.0 1.0 0.00 0.01 0.01 75 1012.7
20260906004043 80 355 0.0 1.0 0.00 0.01 0.01 75 1012.6
20260906003246 80 355 0.0 1.0 0.00 0.01 0.01 74 1012.6
20260906002747 80 355 0.0 1.0 0.00 0.01 0.01 74 1012.7
20260906002339 81 355 0.0 1.0 0.00 0.01 0.01 72 1012.6
20260906002325 81 355 0.0 1.0 0.00 0.01 0.01 73 1012.7
20260906001341 82 355 0.0 0.0 0.00 0.01 0.01 71 1012.5
20260906001327 81 355 0.0 0.0 0.00 0.01 0.01 72 1012.6
20260906000245 82 355 0.0 0.0 0.00 0.01 0.01 70 1012.5
20260905235747 82 355 0.0 1.0 0.00 0.01 0.01 70 1012.4
20260905235246 82 355 0.0 1.0 0.00 0.01 0.01 69 1012.4
20260905234745 83 355 0.0 1.0 0.00 0.01 0.01 69 1012.2
20260905234245 83 355 0.0 0.0 0.00 0.01 0.01 68 1012.2
20260905234046 83 355 0.0 2.0 0.00 0.01 0.01 68 1012.2
20260905233245 83 355 0.0 2.0 0.00 0.01 0.01 68 1012.0
20260905232746 83 273 0.0 2.0 0.00 0.01 0.01 67 1012.1
20260905232246 84 5 0.0 2.0 0.00 0.01 0.01 66 1012.1
20260905231747 84 5 0.0 2.0 0.00 0.01 0.01 65 1012.1
20260905231245 84 5 0.0 2.0 0.00 0.01 0.01 65 1012.0
20260905230745 84 5 1.0 2.0 0.00 0.01 0.01 64 1012.0
20260905230246 84 215 1.0 2.0 0.00 0.01 0.01 64 1012.0
20260905225747 85 311 1.0 5.0 0.00 0.01 0.01 64 1012.0
20260905225245 85 209 1.0 5.0 0.00 0.01 0.01 64 1012.0
20260905224746 85 296 1.0 4.0 0.00 0.01 0.01 63 1012.1
20260905224245 85 232 1.0 4.0 0.00 0.01 0.01 64 1012.0
20260905223743 84 340 1.0 3.0 0.00 0.01 0.01 65 1011.9
20260905223242 84 14 1.0 3.0 0.00 0.01 0.01 65 1011.9
20260905222742 84 201 1.0 7.0 0.00 0.01 0.01 65 1011.8
20260905222547 83 211 1.0 7.0 0.00 0.01 0.01 66 1011.7
20260905222034 83 246 1.0 8.0 0.00 0.01 0.01 67 1011.7
20260905221239 82 224 1.0 8.0 0.00 0.01 0.01 67 1011.9
20260905220736 82 271 1.0 6.0 0.00 0.01 0.01 69 1011.9
20260905220236 82 271 1.0 3.0 0.00 0.01 0.01 70 1012.0
20260905215733 82 189 1.0 3.0 0.00 0.01 0.01 70 1012.0
20260905215232 81 317 1.0 7.0 0.00 0.01 0.01 71 1012.1
20260905214731 81 338 1.0 7.0 0.00 0.01 0.01 72 1012.1
20260905214230 81 241 1.0 4.0 0.00 0.01 0.01 74 1012.3
20260905213731 80 275 1.0 6.0 0.00 0.01 0.01 75 1012.4
20260905213229 80 244 1.0 6.0 0.00 0.01 0.01 76 1012.6
20260905212728 80 281 1.0 4.0 0.00 0.01 0.01 76 1012.7
20260905212529 80 183 1.0 4.0 0.00 0.01 0.01 77 1012.9
20260905211727 79 355 1.0 4.0 0.00 0.01 0.01 78 1012.8
20260905211227 79 288 1.0 4.0 0.00 0.01 0.01 79 1012.9
20260905210725 79 255 1.0 3.0 0.00 0.01 0.01 79 1013.0
20260905210227 79 340 1.0 4.0 0.00 0.01 0.01 80 1012.9
20260905205723 78 252 1.0 4.0 0.00 0.01 0.01 80 1012.9
20260905205223 78 0 0.0 2.0 0.00 0.01 0.01 80 1012.7
20260905204716 78 327 1.0 3.0 0.00 0.01 0.01 79 1012.9
20260905204210 78 279 1.0 3.0 0.00 0.01 0.01 78 1012.8
20260905203706 78 253 1.0 3.0 0.00 0.01 0.01 77 1012.7
20260905203205 78 327 2.0 7.0 0.00 0.01 0.01 77 1012.6
20260905202705 78 259 1.0 7.0 0.00 0.01 0.01 77 1012.8
20260905202206 78 230 1.0 2.0 0.00 0.01 0.01 77 1012.7
20260905201705 78 49 1.0 4.0 0.00 0.01 0.01 78 1012.8
20260905201205 78 279 1.0 4.0 0.00 0.01 0.01 78 1012.9
20260905201000 78 269 0.0 4.0 0.00 0.01 0.01 78 1012.9
20260905200205 78 323 0.0 2.0 0.00 0.01 0.01 78 1013.0
20260905195705 78 329 0.0 2.0 0.00 0.01 0.01 78 1013.0
20260905195503 78 220 0.0 2.0 0.00 0.01 0.01 79 1012.9
20260905194701 78 5 0.0 2.0 0.01 0.01 0.01 80 1012.9
20260905194203 78 227 1.0 2.0 0.01 0.01 0.01 80 1012.9
20260905193700 78 319 1.0 2.0 0.01 0.01 0.01 79 1013.0
20260905193201 78 32 1.0 2.0 0.01 0.01 0.01 77 1012.9
20260905192702 79 13 0.0 2.0 0.01 0.01 0.01 76 1013.1
20260905192202 79 223 0.0 2.0 0.01 0.01 0.01 76 1013.0
20260905191703 79 223 1.0 4.0 0.01 0.01 0.01 75 1012.6
20260905191202 80 74 1.0 4.0 0.01 0.01 0.01 73 1012.6
20260905190658 81 92 2.0 6.0 0.01 0.01 0.01 73 1012.4
20260905190448 82 56 3.0 8.0 0.01 0.01 0.01 70 1012.7
20260905185645 84 65 3.0 8.0 0.01 0.01 0.01 65 1012.8
20260905185140 87 65 3.0 15.0 0.00 0.00 0.00 57 1012.5
20260905184636 89 117 4.0 15.0 0.00 0.00 0.00 51 1013.3
20260905184135 92 31 5.0 17.0 0.00 0.00 0.00 47 1013.5
20260905183635 95 239 5.0 17.0 0.00 0.00 0.00 43 1013.7
20260905183245 98 32 2.0 8.0 0.00 0.00 0.00 46 1012.6
20260905183221 98 280 3.0 10.0 0.00 0.00 0.00 46 1013.3
20260905182135 98 88 2.0 8.0 0.00 0.00 0.00 47 1012.4
20260905181636 98 325 2.0 9.0 0.00 0.00 0.00 47 1012.4
20260905181435 97 256 2.0 9.0 0.00 0.00 0.00 47 1012.6
20260905180634 98 168 2.0 5.0 0.00 0.00 0.00 47 1012.7
20260905180134 98 59 2.0 9.0 0.00 0.00 0.00 47 1012.8
20260905175633 98 97 2.0 9.0 0.00 0.00 0.00 46 1013.1
20260905175427 97 355 1.0 8.0 0.00 0.00 0.00 48 1013.1
20260905174631 97 54 2.0 10.0 0.00 0.00 0.00 47 1013.3
20260905174130 97 157 2.0 10.0 0.00 0.00 0.00 48 1013.3
20260905173633 97 350 2.0 5.0 0.00 0.00 0.00 48 1013.5
20260905173133 97 97 2.0 7.0 0.00 0.00 0.00 48 1013.4
20260905172632 97 67 2.0 7.0 0.00 0.00 0.00 47 1013.6
20260905172133 97 325 2.0 10.0 0.00 0.00 0.00 47 1013.8
20260905171631 97 318 3.0 10.0 0.00 0.00 0.00 47 1013.8
20260905171128 97 233 2.0 8.0 0.00 0.00 0.00 47 1014.0
20260905170629 96 247 2.0 7.0 0.00 0.00 0.00 46 1013.9
20260905170129 96 217 2.0 5.0 0.00 0.00 0.00 48 1014.0
20260905165630 96 90 2.0 6.0 0.00 0.00 0.00 49 1014.0
20260905165128 95 317 2.0 8.0 0.00 0.00 0.00 49 1014.0
20260905164629 95 201 2.0 8.0 0.00 0.00 0.00 49 1014.3
20260905164129 94 13 2.0 7.0 0.00 0.00 0.00 51 1014.4
20260905163629 94 22 2.0 7.0 0.00 0.00 0.00 51 1014.5
20260905163130 94 266 1.0 7.0 0.00 0.00 0.00 51 1014.6
20260905162634 93 223 1.0 5.0 0.00 0.00 0.00 52 1014.7
20260905162423 92 210 1.0 5.0 0.00 0.00 0.00 54 1014.7
20260905161921 92 15 1.0 5.0 0.00 0.00 0.00 56 1014.7
20260905161220 91 240 1.0 4.0 0.00 0.00 0.00 59 1014.7
20260905161204 92 346 1.0 5.0 0.00 0.00 0.00 58 1014.8
20260905160131 91 94 1.0 4.0 0.00 0.00 0.00 61 1014.7
20260905155628 90 198 2.0 4.0 0.00 0.00 0.00 60 1014.7
20260905155127 90 201 1.0 4.0 0.00 0.00 0.00 62 1014.8
20260905154628 90 51 1.0 4.0 0.00 0.00 0.00 65 1014.8
20260905154127 89 346 1.0 4.0 0.00 0.00 0.00 65 1014.9
20260905153627 89 67 1.0 3.0 0.00 0.00 0.00 69 1014.8
20260905153420 88 224 1.0 3.0 0.00 0.00 0.00 70 1014.8
20260905152628 88 326 1.0 4.0 0.00 0.00 0.00 71 1014.7
20260905152127 87 0 1.0 4.0 0.00 0.00 0.00 71 1014.8
20260905151626 87 329 1.0 4.0 0.00 0.00 0.00 73 1015.0
20260905151419 86 327 1.0 3.0 0.00 0.00 0.00 73 1014.9
20260905150623 86 245 1.0 3.0 0.00 0.00 0.00 73 1014.9
20260905150122 86 297 1.0 3.0 0.00 0.00 0.00 74 1014.9
20260905145623 85 284 1.0 3.0 0.00 0.00 0.00 75 1014.9
20260905145413 85 342 1.0 4.0 0.00 0.00 0.00 76 1014.9
20260905144622 85 0 1.0 4.0 0.00 0.00 0.00 76 1014.8
20260905144123 84 56 1.0 4.0 0.00 0.00 0.00 77 1014.8
20260905143624 84 186 1.0 4.0 0.00 0.00 0.00 78 1014.8
20260905143122 83 221 1.0 4.0 0.00 0.00 0.00 78 1014.9
20260905142624 83 22 1.0 2.0 0.00 0.00 0.00 79 1014.9
20260905142120 83 175 1.0 2.0 0.00 0.00 0.00 79 1014.9
20260905141619 82 233 1.0 4.0 0.00 0.00 0.00 79 1015.0
20260905141119 82 348 1.0 4.0 0.00 0.00 0.00 81 1015.0
20260905140620 82 19 1.0 3.0 0.00 0.00 0.00 81 1015.1
20260905140120 81 217 1.0 3.0 0.00 0.00 0.00 82 1015.0
20260905135619 81 191 1.0 4.0 0.00 0.00 0.00 83 1015.0
20260905135119 80 194 1.0 4.0 0.00 0.00 0.00 84 1015.0
20260905134619 80 34 1.0 2.0 0.00 0.00 0.00 85 1015.0
20260905134119 80 260 1.0 3.0 0.00 0.00 0.00 85 1015.1
20260905133908 79 183 1.0 3.0 0.00 0.00 0.00 86 1015.0
20260905133112 79 26 1.0 2.0 0.00 0.00 0.00 87 1015.1
20260905132907 78 223 1.0 2.0 0.00 0.00 0.00 88 1015.1
20260905132112 78 325 1.0 3.0 0.00 0.00 0.00 89 1014.9
20260905131609 78 350 1.0 4.0 0.00 0.00 0.00 89 1015.0
20260905131108 77 265 0.0 4.0 0.00 0.00 0.00 90 1015.0
20260905130608 77 296 0.0 3.0 0.00 0.00 0.00 91 1015.0
20260905130108 77 250 0.0 3.0 0.00 0.00 0.00 92 1015.0
20260905125901 76 261 0.0 2.0 0.00 0.00 0.00 93 1015.2
20260905125106 76 198 0.0 2.0 0.00 0.00 0.00 93 1015.3
20260905124608 76 302 0.0 2.0 0.00 0.00 0.00 93 1015.3
20260905124403 76 275 0.0 1.0 0.00 0.00 0.00 93 1015.2
20260905123607 76 235 0.0 1.0 0.00 0.00 0.00 93 1015.2
20260905123108 75 179 0.0 2.0 0.00 0.00 0.00 93 1015.2
20260905122608 75 156 0.0 2.0 0.00 0.00 0.00 93 1015.2
20260905122359 75 26 0.0 2.0 0.00 0.00 0.00 93 1015.2
20260905121606 75 26 0.0 2.0 0.00 0.00 0.00 93 1015.2
20260905121103 74 26 0.0 1.0 0.00 0.00 0.00 92 1015.3
20260905120603 74 26 0.0 1.0 0.00 0.00 0.00 92 1015.3
20260905120153 74 26 0.0 0.0 0.00 0.00 0.00 91 1015.2
20260905120136 74 26 0.0 1.0 0.00 0.00 0.00 92 1015.3
20260905115047 74 26 0.0 0.0 0.00 0.00 0.00 91 1015.1
20260905114633 74 26 0.0 1.0 0.00 0.00 0.00 91 1014.9
20260905114616 74 26 0.0 1.0 0.00 0.00 0.00 91 1014.9
20260905113540 74 26 0.0 1.0 0.00 0.00 0.00 91 1014.9
20260905113036 74 26 0.0 1.0 0.00 0.00 0.00 90 1014.8
20260905112535 74 26 0.0 1.0 0.00 0.00 0.00 90 1014.7
20260905112331 74 26 0.0 0.0 0.00 0.00 0.00 90 1014.7
20260905111530 74 26 0.0 0.0 0.00 0.00 0.00 90 1014.5
20260905111032 74 26 0.0 1.0 0.00 0.00 0.00 90 1014.4
20260905110535 74 26 0.0 1.0 0.00 0.00 0.00 90 1014.3
20260905110314 74 26 0.0 0.0 0.00 0.00 0.00 90 1014.2
20260905105529 74 26 0.0 0.0 0.00 0.00 0.00 89 1014.2
20260905105030 74 26 0.0 0.0 0.00 0.00 0.00 89 1014.2
20260905104530 75 26 0.0 1.0 0.00 0.00 0.00 89 1013.9
20260905104030 75 26 0.0 1.0 0.00 0.00 0.00 89 1013.9
20260905103919 75 26 0.0 1.0 0.00 0.00 0.00 89 1013.8
20260905103031 75 26 0.0 1.0 0.00 0.00 0.00 89 1013.7
20260905102925 75 26 0.0 1.0 0.00 0.00 0.00 89 1013.7
20260905102030 75 26 0.0 1.0 0.00 0.00 0.00 88 1013.7
20260905101532 75 26 0.0 1.0 0.00 0.00 0.00 88 1013.8
20260905101037 75 26 0.0 1.0 0.00 0.00 0.00 88 1013.7
20260905100527 75 26 0.0 1.0 0.00 0.00 0.00 88 1013.7
20260905100023 75 26 0.0 1.0 0.00 0.00 0.00 88 1013.6
20260905095520 76 26 0.0 0.0 0.00 0.00 0.00 88 1013.7
20260905095011 76 26 0.0 1.0 0.00 0.00 0.00 87 1013.7
20260905094733 76 26 0.0 1.0 0.00 0.00 0.00 87 1013.8
20260905094009 76 26 0.0 0.0 0.00 0.00 0.00 87 1013.8
20260905093510 76 26 0.0 0.0 0.00 0.00 0.00 87 1013.8
20260905093010 76 26 0.0 0.0 0.00 0.00 0.00 86 1013.9
20260905092505 76 26 0.0 0.0 0.00 0.00 0.00 86 1013.9
20260905092002 76 26 0.0 0.0 0.00 0.00 0.00 86 1013.9
20260905091502 76 26 0.0 0.0 0.00 0.00 0.00 86 1013.9
20260905091329 77 26 0.0 0.0 0.00 0.00 0.00 86 1014.0
20260905090504 77 26 0.0 0.0 0.00 0.00 0.00 86 1013.8
20260905090002 77 26 0.0 1.0 0.00 0.00 0.00 86 1013.9
20260905085513 77 26 0.0 1.0 0.00 0.00 0.00 86 1013.9
20260905085006 77 26 0.0 1.0 0.00 0.00 0.00 86 1013.9
20260905084501 77 26 0.0 1.0 0.00 0.00 0.00 86 1013.9
20260905084003 77 26 0.0 1.0 0.00 0.00 0.00 86 1014.0
20260905083823 77 355 0.0 2.0 0.00 0.00 0.00 86 1014.2
20260905083331 77 342 0.0 2.0 0.00 0.00 0.00 86 1014.0
20260905082503 77 322 0.0 1.0 0.00 0.00 0.00 86 1014.2
20260905082000 77 321 0.0 1.0 0.00 0.00 0.00 86 1014.2
20260905081913 78 322 0.0 0.0 0.00 0.00 0.00 85 1014.2
20260905080948 78 322 0.0 1.0 0.00 0.00 0.00 85 1014.0
20260905080442 78 322 0.0 1.0 0.00 0.00 0.00 85 1014.2
20260905075932 78 321 0.0 1.0 0.00 0.00 0.00 84 1014.3
20260905075436 78 322 0.0 1.0 0.00 0.00 0.00 85 1014.3
20260905074930 78 322 0.0 1.0 0.00 0.00 0.00 85 1014.3
20260905074433 78 302 0.0 0.0 0.00 0.00 0.00 84 1014.4
20260905073940 78 302 0.0 0.0 0.00 0.00 0.00 84 1014.6
20260905073758 78 302 0.0 0.0 0.00 0.00 0.00 84 1014.6
20260905072931 78 302 0.0 0.0 0.00 0.00 0.00 83 1014.5
20260905072431 79 302 0.0 0.0 0.00 0.00 0.00 83 1014.6
20260905072243 79 302 0.0 0.0 0.00 0.00 0.00 83 1014.6
20260905071429 79 302 0.0 0.0 0.00 0.00 0.00 83 1014.6
20260905070926 79 302 0.0 0.0 0.00 0.00 0.00 83 1014.6
20260905070427 79 302 0.0 0.0 0.00 0.00 0.00 82 1014.7
20260905070243 79 302 0.0 0.0 0.00 0.00 0.00 82 1014.7
20260905065422 79 302 0.0 0.0 0.00 0.00 0.00 82 1014.8
20260905064924 79 302 0.0 0.0 0.00 0.00 0.00 81 1014.9
20260905064420 79 302 0.0 1.0 0.00 0.00 0.00 81 1014.9
20260905064247 80 302 0.0 1.0 0.00 0.00 0.00 81 1014.8
20260905063421 80 302 0.0 1.0 0.00 0.00 0.00 81 1015.0
20260905062923 80 302 0.0 1.0 0.00 0.00 0.00 81 1015.0
20260905062416 80 302 0.0 0.0 0.00 0.00 0.00 81 1015.1
20260905061916 80 302 0.0 0.0 0.00 0.00 0.00 80 1015.1
20260905061413 80 302 0.0 0.0 0.00 0.00 0.00 80 1015.2
20260905060917 80 302 0.0 0.0 0.00 0.00 0.00 80 1015.4
20260905060413 80 302 0.0 0.0 0.00 0.00 0.00 79 1015.4
20260905055911 81 302 0.0 0.0 0.00 0.00 0.00 79 1015.4
20260905055411 81 302 0.0 0.0 0.00 0.00 0.00 79 1015.5
20260905054912 81 302 0.0 0.0 0.00 0.00 0.00 78 1015.4
20260905054411 81 302 0.0 1.0 0.00 0.00 0.00 79 1015.6
20260905053910 81 302 0.0 1.0 0.00 0.00 0.00 79 1015.6
20260905053412 81 302 0.0 1.0 0.00 0.00 0.00 78 1015.7
20260905052907 81 324 0.0 1.0 0.00 0.00 0.00 78 1015.6
20260905052408 81 317 0.0 1.0 0.00 0.00 0.00 78 1015.7
20260905051906 81 317 0.0 1.0 0.00 0.00 0.00 78 1015.7
20260905051710 80 317 0.0 1.0 0.00 0.00 0.00 78 1015.7
20260905050912 80 317 0.0 1.0 0.00 0.00 0.00 78 1015.8
20260905050408 80 317 0.0 1.0 0.00 0.00 0.00 78 1015.8
20260905050219 80 317 0.0 1.0 0.00 0.00 0.00 78 1015.8
20260905045407 80 317 0.0 1.0 0.00 0.00 0.00 78 1016.0
20260905044909 81 317 0.0 1.0 0.00 0.00 0.00 79 1016.0
20260905044715 81 317 0.0 0.0 0.00 0.00 0.00 78 1015.9
20260905044221 81 317 0.0 0.0 0.00 0.00 0.00 78 1016.0
20260905043402 81 317 0.0 0.0 0.00 0.00 0.00 77 1016.1
20260905042902 81 317 0.0 0.0 0.00 0.00 0.00 78 1016.0
20260905042402 81 317 0.0 0.0 0.00 0.00 0.00 78 1016.0
20260905041902 81 317 0.0 0.0 0.00 0.00 0.00 78 1016.0
20260905041704 81 317 0.0 0.0 0.00 0.00 0.00 77 1016.0
20260905041221 81 317 0.0 0.0 0.00 0.00 0.00 77 1015.9
20260905040405 81 317 0.0 1.0 0.00 0.00 0.00 77 1015.8
20260905035901 82 317 0.0 1.0 0.00 0.00 0.00 77 1015.8
20260905035354 82 317 0.0 1.0 0.00 0.00 0.00 77 1015.9
20260905034850 82 300 0.0 1.0 0.00 0.00 0.00 76 1015.8
20260905034714 82 300 0.0 0.0 0.00 0.00 0.00 76 1015.7
20260905034216 82 300 0.0 0.0 0.00 0.00 0.00 76 1015.8
20260905033349 82 300 0.0 0.0 0.00 0.00 0.00 76 1015.8
20260905032847 82 300 0.0 0.0 0.00 0.00 0.00 75 1015.8
20260905032348 82 300 0.0 0.0 0.00 0.00 0.00 76 1015.8
20260905031844 83 300 0.0 1.0 0.00 0.00 0.00 75 1015.6
20260905031543 83 300 0.0 0.0 0.00 0.00 0.00 73 1015.7
20260905031458 83 300 0.0 1.0 0.00 0.00 0.00 75 1015.5
20260905030341 83 300 0.0 1.0 0.00 0.00 0.00 73 1015.8
20260905025844 83 300 0.0 1.0 0.00 0.00 0.00 73 1015.7
20260905025344 84 300 0.0 1.0 0.00 0.00 0.00 73 1015.7
20260905024842 84 300 0.0 1.0 0.00 0.00 0.00 72 1015.8
20260905024340 84 300 0.0 0.0 0.00 0.00 0.00 71 1016.0
20260905023842 84 300 0.0 1.0 0.00 0.00 0.00 71 1015.9
20260905023340 84 300 0.0 1.0 0.00 0.00 0.00 71 1016.0
20260905022838 85 300 1.0 1.0 0.00 0.00 0.00 70 1015.9
20260905022333 85 300 1.0 1.0 0.00 0.00 0.00 70 1015.9
20260905021835 85 300 0.0 1.0 0.00 0.00 0.00 70 1015.8
20260905021336 85 300 0.0 0.0 0.00 0.00 0.00 69 1015.8
20260905021143 85 300 0.0 1.0 0.00 0.00 0.00 69 1015.8